Fulton, NY

10:30 PM EST on December 13, 2019 (GMT -0500)
Oswego County

Weather History for KFZY - May, 2019

Change the Weather History Date:

Wednesday, May 1, 2019

  Actual Average (KSYR) Record (KSYR)
Temperature  
Mean Temperature 52 °F -  
Max Temperature 61 °F 65 °F 87 °F (1936)
Min Temperature 43 °F 42 °F 27 °F (1978)
Degree Days  
Heating Degree Days 13    
Growing Degree Days 2 (Base 50)    
Moisture  
Dew Point 42 °F    
Average Humidity 74    
Maximum Humidity 89    
Minimum Humidity 57    
Precipitation  
Precipitation 0.69 in - - ()
Sea Level Pressure  
Sea Level Pressure 30.21 in    
Wind  
Wind Speed 5 mph (ESE)    
Max Wind Speed 12 mph    
Max Gust Speed 23 mph    
Visibility 10 miles    
Events Rain , Thunderstorm    
Averages and records for this station are not official NWS values.
T = Trace of Precipitation, MM = Missing Value Source: NWS Daily Summary

Daily Weather History Graph

Daily Weather History Graph

Search for Another Location

Airport or City:

Astronomy

May. 01, 2019 Rise Set
Actual Time 5:58 AM EDT 8:07 PM EDT
Civil Twilight 5:27 AM EDT 8:38 PM EDT
Nautical Twilight 4:49 AM EDT 9:17 PM EDT
Astronomical Twilight 4:07 AM EDT 9:59 PM EDT
Moon 4:51 AM EDT (5/1) 4:45 PM EDT (5/1)
Length of Visible Light 15h 10m
Length of Day
14h 08m
Waning Crescent, 11% of the Moon is Illuminated
May 1
Waning Crescent
May 4
New
May 11
First Quarter
May 18
Full
May 26
Last Quarter

Hourly Weather History & Observations

Time (EDT) Temp. Windchill Dew Point Humidity Pressure Visibility Wind Dir Wind Speed Gust Speed Precip Events Conditions
12:54 AM 43.0 °F - 34.0 °F 71% 30.43 in 10.0 mi Calm Calm - N/A   Overcast
1:54 AM 44.1 °F 41.5 °F 33.1 °F 65% 30.40 in 10.0 mi East 4.6 mph - N/A   Overcast
2:54 AM 44.1 °F 42.5 °F 33.1 °F 65% 30.44 in 10.0 mi WNW 3.5 mph - N/A   Overcast
3:54 AM 44.1 °F 42.5 °F 35.1 °F 71% 30.38 in 10.0 mi East 3.5 mph - 0.00 in Rain Light Rain
4:54 AM 45.0 °F 43.5 °F 34.0 °F 65% 30.36 in 10.0 mi Variable 3.5 mph - 0.00 in   Overcast
5:54 AM 44.1 °F 42.5 °F 37.9 °F 79% 30.38 in 10.0 mi Variable 3.5 mph - 0.06 in Rain Rain
6:54 AM 44.1 °F 41.5 °F 39.0 °F 82% 30.38 in 10.0 mi East 4.6 mph - 0.05 in Rain Light Rain
7:54 AM 44.1 °F 40.8 °F 39.0 °F 82% 30.38 in 10.0 mi East 5.8 mph - 0.17 in Rain Heavy Rain
8:54 AM 45.0 °F 41.2 °F 39.9 °F 82% 30.39 in 10.0 mi East 6.9 mph - 0.01 in   Overcast
9:32 AM 45.0 °F 41.2 °F 41.0 °F 86% 30.34 in 10.0 mi East 6.9 mph - N/A   Overcast
9:54 AM 45.0 °F 40.1 °F 41.0 °F 86% 30.34 in 10.0 mi ESE 9.2 mph - N/A   Overcast
10:54 AM 45.0 °F 41.2 °F 41.0 °F 86% 30.31 in 10.0 mi Variable 6.9 mph - 0.03 in Rain Light Rain
11:21 AM 45.0 °F 40.6 °F 39.9 °F 82% 30.28 in 10.0 mi ESE 8.1 mph - 0.00 in   Overcast
11:54 AM 46.9 °F - 39.9 °F 77% 30.26 in 10.0 mi ESE 8.1 mph 20.7 mph 0.00 in   Overcast
12:54 PM 51.1 °F - 39.9 °F 66% 30.23 in 10.0 mi SE 11.5 mph 23.0 mph N/A   Overcast
1:54 PM 55.0 °F - 42.1 °F 62% 30.18 in 10.0 mi ESE 10.4 mph 20.7 mph N/A   Clear
2:54 PM 59.0 °F - 44.1 °F 58% 30.14 in 10.0 mi ESE 9.2 mph 19.6 mph N/A   Clear
3:54 PM 60.1 °F - 45.0 °F 57% 30.09 in 10.0 mi ESE 11.5 mph 19.6 mph N/A   Clear
4:54 PM 61.0 °F - 46.0 °F 58% 30.07 in 10.0 mi ESE 9.2 mph - N/A   Clear
5:54 PM 59.0 °F - 46.0 °F 62% 30.03 in 10.0 mi SE 11.5 mph 19.6 mph N/A   Clear
6:54 PM 57.0 °F - 45.0 °F 64% 30.00 in 10.0 mi SE 10.4 mph 23.0 mph N/A   Clear
7:54 PM 55.9 °F - 44.1 °F 64% 30.02 in 10.0 mi SE 8.1 mph - N/A   Mostly Cloudy
8:17 PM 53.1 °F - 46.0 °F 77% 30.05 in 10.0 mi SSE 4.6 mph - 0.08 in Rain , Thunderstorm Thunderstorms and Rain
8:31 PM 53.1 °F - 46.9 °F 80% 30.04 in 10.0 mi ESE 6.9 mph - 0.14 in Rain Heavy Rain
8:54 PM 53.1 °F - 46.9 °F 80% 30.06 in 10.0 mi Variable 4.6 mph - 0.14 in Rain Light Rain
9:54 PM 53.1 °F - 48.9 °F 86% 30.06 in 10.0 mi SE 5.8 mph - 0.12 in Rain Light Rain
10:03 PM 53.1 °F - 48.9 °F 86% 30.06 in 10.0 mi SE 3.5 mph - 0.00 in Rain Light Rain
10:54 PM 53.1 °F - 48.9 °F 86% 30.06 in 10.0 mi Variable 4.6 mph - 0.08 in Rain Rain
11:54 PM 53.1 °F - 50.0 °F 89% 30.05 in 10.0 mi Calm Calm - 0.03 in Rain Light Rain